Weather History for Athens Eleftherios, Greece

Change the Weather History Date:

Saturday, January 19, 2013

  Actual Average (LGEL) Record (LGEL)
Temperature  
Mean Temperature 52 °F -  
Max Temperature 57 °F 54 °F 64 °F (2007)
Min Temperature 46 °F 41 °F 32 °F (2012)
Degree Days  
Heating Degree Days 14    
Growing Degree Days 2 (Base 50)    
Moisture  
Dew Point 36 °F    
Average Humidity 58    
Maximum Humidity 66    
Minimum Humidity 47    
Precipitation  
Precipitation 0.00 in - - ()
Sea Level Pressure  
Sea Level Pressure 29.70 in    
Wind  
Wind Speed 7 mph ()    
Max Wind Speed 21 mph    
Max Gust Speed 37 mph    
Visibility 6.2 miles    
Events      
Averages and records for this station are not official NWS values.
T = Trace of Precipitation, MM = Missing Value Source: Averaged Metar Reports

Daily Weather History Graph

Daily Weather History Graph

Search for Another Location

Airport:

Trip Planner

Search our weather history database for the weather conditions in past years. The results will help you decide how hot, cold, wet, or windy it might be!

Date:

Astronomy

Jan. 19, 2013 Rise Set
Actual Time 7:37 AM EET 5:33 PM EET
Civil Twilight 7:08 AM EET 6:01 PM EET
Nautical Twilight 6:36 AM EET 6:33 PM EET
Astronomical Twilight 6:05 AM EET 7:05 PM EET
Moon 11:47 AM EET (1/19) 12:54 AM EET (1/19)
Length of Visible Light 10h 52m
Length of Day
9h 55m
First Quarter, 54% of the Moon is Illuminated
Jan 19
First Quarter
Jan 27
Full
Feb 3
Last Quarter
Feb 10
New
Feb 17
First Quarter

Hourly Weather History & Observations

Time (EET) Temp. Windchill Dew Point Humidity Pressure Visibility Wind Dir Wind Speed Gust Speed Precip Events Conditions
12:20 AM 48.2 °F - 35.6 °F 62% 29.53 in 6.2 mi WSW 5.8 mph - N/A   Partly Cloudy
12:50 AM 48.2 °F - 33.8 °F 58% 29.53 in 6.2 mi Variable 3.5 mph - N/A   Scattered Clouds
1:20 AM 48.2 °F - 35.6 °F 62% 29.56 in 6.2 mi Variable 1.2 mph - N/A   Scattered Clouds
1:50 AM 48.2 °F - 35.6 °F 62% 29.56 in 6.2 mi Variable 3.5 mph - N/A   Mostly Cloudy
2:20 AM 48.2 °F - 35.6 °F 62% 29.56 in 6.2 mi Variable 3.5 mph - N/A   Mostly Cloudy
2:50 AM 46.4 °F 44.3 °F 35.6 °F 66% 29.59 in 6.2 mi WSW 4.6 mph - N/A   Mostly Cloudy
3:20 AM 46.4 °F 45.2 °F 35.6 °F 66% 29.59 in 6.2 mi Variable 3.5 mph - N/A   Scattered Clouds
3:50 AM 46.4 °F - 35.6 °F 66% 29.59 in 6.2 mi Variable 1.2 mph - N/A   Mostly Cloudy
4:20 AM 48.2 °F - 35.6 °F 62% 29.59 in 6.2 mi SW 6.9 mph - N/A   Scattered Clouds
4:50 AM 46.4 °F 41.5 °F 35.6 °F 66% 29.59 in 6.2 mi SSW 10.4 mph - N/A   Scattered Clouds
5:20 AM 46.4 °F 41.9 °F 35.6 °F 66% 29.59 in 6.2 mi SW 9.2 mph - N/A   Scattered Clouds
5:50 AM 46.4 °F 41.9 °F 35.6 °F 66% 29.59 in 6.2 mi SW 9.2 mph - N/A   Partly Cloudy
6:20 AM 48.2 °F - 35.6 °F 62% 29.59 in 6.2 mi SW 6.9 mph - N/A   Mostly Cloudy
6:50 AM 48.2 °F - 37.4 °F 66% 29.62 in 6.2 mi SW 6.9 mph - N/A   Mostly Cloudy
7:20 AM 48.2 °F - 35.6 °F 62% 29.62 in 6.2 mi SSW 8.1 mph - N/A   Scattered Clouds
7:50 AM 48.2 °F - 35.6 °F 62% 29.65 in 6.2 mi Variable 2.3 mph - N/A   Scattered Clouds
8:20 AM 48.2 °F - 37.4 °F 66% 29.65 in 6.2 mi Calm Calm - N/A   Scattered Clouds
8:50 AM 48.2 °F - 37.4 °F 66% 29.68 in 6.2 mi Variable 3.5 mph - N/A   Scattered Clouds
9:20 AM 48.2 °F - 37.4 °F 66% 29.68 in 6.2 mi South 6.9 mph - N/A   Scattered Clouds
9:50 AM 50.0 °F - 37.4 °F 62% 29.68 in 6.2 mi Variable 3.5 mph - N/A   Scattered Clouds
10:20 AM 51.8 °F - 37.4 °F 58% 29.71 in 6.2 mi WSW 13.8 mph - N/A   Scattered Clouds
10:50 AM 50.0 °F - 35.6 °F 58% 29.71 in 6.2 mi WSW 17.3 mph 36.8 mph N/A   Scattered Clouds
11:20 AM 51.8 °F - 37.4 °F 58% 29.71 in 6.2 mi WSW 20.7 mph - N/A   Scattered Clouds
11:50 AM 53.6 °F - 37.4 °F 54% 29.68 in 6.2 mi WSW 19.6 mph 31.1 mph N/A   Scattered Clouds
12:20 PM 53.6 °F - 39.2 °F 58% 29.68 in 6.2 mi SW 18.4 mph - N/A   Scattered Clouds
12:50 PM 55.4 °F - 37.4 °F 51% 29.71 in 6.2 mi SW 11.5 mph - N/A   Scattered Clouds
1:20 PM 55.4 °F - 37.4 °F 51% 29.68 in 6.2 mi SW 12.7 mph - N/A   Scattered Clouds
1:50 PM 55.4 °F - 37.4 °F 51% 29.71 in 6.2 mi SSW 19.6 mph - N/A   Scattered Clouds
2:20 PM 55.4 °F - 37.4 °F 51% 29.71 in 6.2 mi SW 16.1 mph - N/A   Scattered Clouds
2:50 PM 57.2 °F - 37.4 °F 48% 29.71 in 6.2 mi WSW 13.8 mph - N/A   Scattered Clouds
3:20 PM 57.2 °F - 37.4 °F 48% 29.74 in 6.2 mi WSW 12.7 mph - N/A   Scattered Clouds
3:50 PM 55.4 °F - 35.6 °F 47% 29.74 in 6.2 mi WSW 12.7 mph - N/A   Scattered Clouds
4:20 PM 55.4 °F - 37.4 °F 51% 29.74 in 6.2 mi WSW 9.2 mph - N/A   Scattered Clouds
4:50 PM 53.6 °F - 35.6 °F 51% 29.77 in 6.2 mi SW 8.1 mph - N/A   Scattered Clouds
5:20 PM 53.6 °F - 35.6 °F 51% 29.77 in 6.2 mi West 10.4 mph - N/A   Scattered Clouds
5:50 PM 51.8 °F - 35.6 °F 54% 29.80 in 6.2 mi West 4.6 mph - N/A   Scattered Clouds
6:20 PM 51.8 °F - 35.6 °F 54% 29.80 in 6.2 mi West 10.4 mph - N/A   Scattered Clouds
6:50 PM 51.8 °F - 35.6 °F 54% 29.80 in 6.2 mi WSW 8.1 mph - N/A   Mostly Cloudy
7:20 PM 51.8 °F - 35.6 °F 54% 29.80 in 6.2 mi SW 10.4 mph - N/A   Mostly Cloudy
7:50 PM 51.8 °F - 35.6 °F 54% 29.83 in 6.2 mi SE 5.8 mph - N/A   Mostly Cloudy
8:20 PM 51.8 °F - 35.6 °F 54% 29.83 in 6.2 mi Variable 3.5 mph - N/A   Mostly Cloudy
8:50 PM 51.8 °F - 35.6 °F 54% 29.83 in 6.2 mi Variable 3.5 mph - N/A   Mostly Cloudy
9:20 PM 51.8 °F - 35.6 °F 54% 29.83 in 6.2 mi SSE 8.1 mph - N/A   Scattered Clouds
9:50 PM 51.8 °F - 35.6 °F 54% 29.86 in 6.2 mi SW 4.6 mph - N/A   Scattered Clouds
10:20 PM 51.8 °F - 37.4 °F 58% 29.86 in 6.2 mi WSW 4.6 mph - N/A   Partly Cloudy
10:50 PM 50.0 °F - 37.4 °F 62% 29.86 in 6.2 mi SW 5.8 mph - N/A   Partly Cloudy
11:20 PM 50.0 °F - 37.4 °F 62% 29.89 in 6.2 mi Variable 1.2 mph - N/A   Partly Cloudy
11:50 PM 50.0 °F - 39.2 °F 66% 29.89 in 6.2 mi South 4.6 mph - N/A   Partly Cloudy